This is the latest recevied weather packets stored in our database for station/object IONIA-WX. If no packets are shown the sender has not sent any weather packets the latest 10 day(s).
| Time | Temp. | Humidity | Pressure | Rain* | Wind** | Luminosity | Snow |
|---|---|---|---|---|---|---|---|
| 1788418084 | -17.78° C | 100% | - | 0 mm | - | - | - |
| 1788417021 | 22.22° C | 91% | 983.4 hPa | 0 mm | - | - | - |
| 1788416121 | 22.22° C | 91% | 983.4 hPa | 0 mm | - | - | - |
| 1788415225 | 22.78° C | 91% | 983.4 hPa | 0 mm | - | - | - |
| 1788414320 | 22.78° C | 90% | 983.5 hPa | 0 mm | - | - | - |
| 1788413419 | 22.78° C | 83% | 983.4 hPa | 0 mm | - | - | - |
| 1788412520 | 22.78° C | 83% | 983.3 hPa | 0 mm | - | - | - |
| 1788411619 | 22.78° C | 83% | 983.3 hPa | 0 mm | - | - | - |
| 1788410789 | -17.78° C | 100% | - | 0 mm | - | - | - |
| 1788409817 | 23.33° C | 80% | 983.3 hPa | 0 mm | - | - | - |
| 1788408920 | 23.33° C | 80% | 983.3 hPa | 0 mm | - | - | - |
| 1788408022 | 23.33° C | 80% | 983.3 hPa | 0 mm | - | - | - |
| 1788407120 | 23.33° C | 80% | 983.6 hPa | 0 mm | - | - | - |
| 1788406219 | 23.89° C | 74% | 983.5 hPa | 0 mm | - | - | - |
| 1788405317 | 23.89° C | 74% | 983.6 hPa | 0 mm | - | - | - |
| 1788404420 | 24.44° C | 74% | 983.6 hPa | 0 mm | - | - | - |
| 1788403520 | 24.44° C | 69% | 983.4 hPa | 0.25 mm | - | - | - |
| 1788402617 | 25° C | 72% | 983.2 hPa | 0.25 mm | - | - | - |
| 1788401719 | 25.56° C | 72% | 983.2 hPa | 0 mm | - | - | - |
| 1788400919 | -17.78° C | 100% | - | 0 mm | - | - | - |
| 1788399929 | -17.78° C | 100% | - | 0 mm | - | - | - |
| 1788399022 | 26.11° C | 68% | 983.1 hPa | 0 mm | - | - | - |
| 1788398119 | 26.67° C | 68% | 983.1 hPa | 0 mm | - | - | - |
| 1788397219 | 26.67° C | 68% | 983.1 hPa | 0 mm | - | - | - |
| 1788396318 | 26.67° C | 64% | 982.4 hPa | 0 mm | - | - | - |
* Rain latest hour (hover to see other rain measurements)
** Current wind speed in m/s (hover to see current wind gust speed)